lobby

Flag for Lithuania Weather past 2 weeks in Kaunas, Lithuania

Now
50 °F

Mostly cloudy.


Feels Like: 47 °F
Forecast: 36 / 56 °F
Wind: 7 mph from North

Location: Kaunas

Current Time: Sep 23, 2014 at 12:06:15 PM

Latest Report: Sep 23, 2014 at 11:20 AM


Visibility: N/A

Pressure: 29.59 "Hg

Humidity: 71%

Dew point: 41 °F

Location of KaunasLocation

Historic Weather in Kaunas — Graph

°F

Kaunas temperature yesterday

Maximum temperature yesterday: 57 °F (at 2:20 PM)
Minimum temperature yesterday: 52 °F (at 2:00 AM)
Average temperature yesterday: 55 °F

Past Weeks' High & Low Weather Summary

 TemperatureHumidityPressure
High77 °F (Sep 12, 3:20 PM)100% (Sep 11, 5:20 AM)30.39 "Hg (Sep 11, 5:20 AM)
Low37 °F (Sep 16, 6:50 AM)30% (Sep 18, 1:50 PM)29.53 "Hg (Sep 22, 11:50 AM)
Average57 °F72%30.09 "Hg
* Reported Sep 8 10:20 AM — Sep 23 10:50 AM, Kaunas, Weather by CustomWeather, © 2014

Note: Actual official high and low records may vary slightly from our data, if they occured in-between our weather recording intervals... More about our weather records

Advertising

Kaunas weather history for previous 24 hours

 ConditionsComfort  
Time TempWeatherWind HumidityBarometerVisibility
10:50 AM
Sep 23
50 °FOvercast.8 mph71%29.56 "HgN/A
10:20 AM50 °FMostly cloudy.8 mph76%29.56 "HgN/A
9:50 AM50 °FMostly cloudy.8 mph76%29.56 "HgN/A
9:20 AM52 °FLight rain. Mostly cloudy.6 mph77%29.53 "HgN/A
8:50 AM50 °FMostly cloudy.6 mph82%29.53 "HgN/A
8:20 AM50 °FLow clouds.6 mph82%29.53 "HgN/A
7:50 AM48 °FMostly cloudy.8 mph87%29.53 "HgN/A
7:20 AM48 °FMostly cloudy.9 mph87%29.53 "HgN/A
6:50 AM48 °FLow clouds.8 mph87%29.53 "HgN/A
6:20 AM48 °FLight rain. Low clouds.8 mph82%29.53 "Hg4 mi
5:50 AM48 °FLight rain. Fog.13 mph87%29.53 "Hg3 mi
5:20 AM50 °FLow clouds.8 mph82%29.53 "HgN/A
4:50 AM50 °FLow clouds.9 mph82%29.53 "HgN/A
4:20 AM50 °FLow clouds.8 mph82%29.53 "HgN/A
3:50 AM48 °FLow clouds.9 mph87%29.53 "HgN/A
3:20 AM48 °FMostly cloudy.9 mph82%29.53 "HgN/A
2:50 AM50 °FMostly cloudy.8 mph82%29.53 "HgN/A
2:20 AM50 °FLow clouds.10 mph82%29.53 "HgN/A
1:50 AM52 °FMostly cloudy.9 mph82%29.53 "HgN/A
1:20 AM52 °FOvercast.9 mph82%29.53 "HgN/A
12:50 AM52 °FOvercast.8 mph82%29.53 "HgN/A
12:20 AM54 °FSprinkles. Overcast.8 mph82%29.56 "HgN/A
11:50 PM
Sep 22
54 °FMostly cloudy.8 mph82%29.56 "HgN/A
11:20 PM54 °FLight rain. Mostly cloudy.8 mph82%29.56 "HgN/A
10:50 PM54 °FLight rain. Clear.7 mph82%29.56 "HgN/A
10:20 PM54 °FLight rain. Mostly cloudy.7 mph82%29.56 "HgN/A
9:50 PM54 °FLight rain. Clear.7 mph82%29.56 "HgN/A
9:20 PM55 °FLight rain. Low clouds.8 mph82%29.56 "HgN/A
8:50 PM55 °FMostly cloudy.7 mph82%29.56 "HgN/A
8:20 PM55 °FMostly cloudy.5 mph82%29.56 "HgN/A
7:50 PM55 °FLight rain. Cloudy.6 mph77%29.56 "HgN/A
7:20 PM55 °FLight rain. Clear.7 mph82%29.56 "HgN/A
6:50 PM55 °FLight rain. More clouds than sun.6 mph82%29.56 "HgN/A
6:20 PM55 °FLight rain. More clouds than sun.8 mph82%29.56 "HgN/A
5:50 PM57 °FLight rain. Cloudy.12 mph77%29.56 "Hg4 mi
5:20 PM57 °FLight rain. Fog.5 mph82%29.56 "Hg3 mi
4:50 PM57 °FLight rain. Fog.6 mph82%29.56 "Hg3 mi
4:20 PM57 °FLight rain. Mostly cloudy.5 mph82%29.56 "Hg6 mi
3:50 PM57 °FMostly cloudy.6 mph82%29.53 "HgN/A
3:20 PM57 °FMostly cloudy.3 mph82%29.56 "Hg6 mi
2:50 PM57 °FMostly cloudy.3 mph77%29.56 "Hg6 mi
2:20 PM57 °FMostly cloudy.3 mph77%29.53 "Hg4 mi
1:50 PM55 °FLow clouds.2 mph82%29.53 "Hg4 mi
1:20 PM55 °FLow clouds.No wind82%29.53 "Hg4 mi
12:50 PM55 °FMostly cloudy.2 mph82%29.53 "HgN/A
12:20 PM55 °FLow clouds.2 mph82%29.53 "HgN/A
Weather by CustomWeather, © 2014

See weather overviewHow to use our weather pages